Regional Weather Roundup
Issued by NWS Albany, NY

Home | Current Version | Previous Version | Text Only | Print | Product List | Glossary On
Versions: 1 2 3 4 5 6 7 8 9 10 11 12 13 14 15 16 17 18 19 20 21 22 23 24 25 26 27 28 29 30 31 32 33 34 35 36 37 38 39 40 41 42 43 44 45 46 47 48 49 50
000
ASUS41 KALY 070910
RWRALY

NEW YORK STATE HOURLY WEATHER ROUNDUP
NATIONAL WEATHER SERVICE ALBANY NY
400 AM EST WED DEC 07 2016

NOTE: "FAIR" INDICATES FEW OR NO CLOUDS BELOW 12,000 FEET WITH NO
SIGNIFICANT WEATHER AND/OR NO OBSTRUCTIONS TO VISIBILITY.

NYZ032-033-038>043-046>054-057>066-NYZ062>081-082-084-071000-
EAST


CITY           SKY/WX    TMP DP  RH WIND       PRES   REMARKS
ALBANY         LGT SNOW  32  31  96 NW5       29.94R FOG     WCI  27
GLENS FALLS    LGT SNOW  33  30  88 CALM      29.92R FOG
POUGHKEEPSIE   CLOUDY    33  32  96 N3        29.92R FOG
MONTGOMERY     LGT RAIN  34  33  96 N5        29.91R FOG     WCI  30
WHITE PLAINS   LGT RAIN  37  35  92 N6        29.89R FOG     WCI  32
ISLIP          CLOUDY    42  40  92 N9        29.88R
NEW YORK CITY  LGT RAIN  41  39  93 N7        29.90R FOG
CENTRAL PARK   LGT RAIN  40  38  93 VRB7      29.92R FOG
$$

NYZ005>009-017-018-044>046-055-056-071000-
CENTRAL


CITY           SKY/WX    TMP DP  RH WIND       PRES   REMARKS
FULTON         LGT RAIN  35  33  92 SE6       29.84S FOG     WCI  30
SYRACUSE       LGT SNOW  32  32 100 E6        29.85S FOG     WCI  26
ROME           CLOUDY    33  33 100 SE6       29.89S FOG     WCI  28
ELMIRA         CLOUDY    34  32  92 CALM      29.85S FOG
BINGHAMTON     LGT SNOW  31  31 100 SE5       29.83S VSB 3/4 WCI  26
MONTICELLO     CLOUDY    32  32 100 CALM      29.88S
$$

NYZ026>034-041>043-087-071000-
NORTH


CITY           SKY/WX    TMP DP  RH WIND       PRES   REMARKS
WATERTOWN      LGT RAIN  38  34  85 S8G16     29.80F WCI  32
FORT DRUM      NOT AVBL
OGDENSBURG     LGT RAIN  33  32  96 CALM      29.82F
MASSENA        LGT SNOW  29  26  89 E9        29.86F FOG     WCI  20
SARANAC LAKE   LGT SNOW  27  25  92 CALM      29.80F FOG
PLATTSBURGH    LGT SNOW  30  28  92 CALM      29.90F FOG
$$

NYZ001>004-010>016-019>021-085-071000-
WEST


CITY           SKY/WX    TMP DP  RH WIND       PRES   REMARKS
NIAGARA FALLS  LGT RAIN  42  37  82 W22G29    29.81R
BUFFALO        LGT RAIN  41  41 100 W10G25    29.80R FOG
DUNKIRK        CLOUDY    41  35  79 W14G28    29.86R
JAMESTOWN      CLOUDY    37  34  87 W13G23    29.84R WCI  29
WELLSVILLE     CLOUDY    36  33  89 SW9       29.81S FOG     WCI  29
ROCHESTER      CLOUDY    38  35  89 SW8       29.80F WCI  32
PENN YAN       CLOUDY    36  32  85 S8        29.82F WCI  30
$$

             KEY
       WCI = WIND CHILL INDEX
       VSB = VISIBILITY
       HX  = HEAT INDEX
$$



USA.gov is the U.S. government's official web portal to all federal, state and local government web resources and services.